******** Week 365 almanac for PRN-1 ******** ID: 1 Health: 0 Eccentricity: 0.001680850983 Time of Applicability(s): 61440 Orbital Inclination(rad): 0.9577816513 Rate of Right Ascen(r/s): -8.137481816e-09 SQRT(A) (m 1/2): 5153.566895 Right Ascen at Week(rad): 2.511549744 Argument of Perigee(rad): 0.1509368187 Mean Anom(rad): 1.867250099 Af0(s): 0.0002404221069 Af1(s/s): -7.275958e-12 week: 365 ******** Week 365 almanac for PRN-2 ******** ID: 2 Health: 0 Eccentricity: 0.01683044434 Time of Applicability(s): 61440 Orbital Inclination(rad): 0.9628749469 Rate of Right Ascen(r/s): -8.114623721e-09 SQRT(A) (m 1/2): 5153.526855 Right Ascen at Week(rad): 2.349159002 Argument of Perigee(rad): -0.791834816 Mean Anom(rad): -2.899069768 Af0(s): 5.727924805e-05 Af1(s/s): 7.275958e-12 week: 365 ******** Week 365 almanac for PRN-3 ******** ID: 3 Health: 0 Eccentricity: 0.006639957428 Time of Applicability(s): 61440 Orbital Inclination(rad): 0.9940099632 Rate of Right Ascen(r/s): -7.406022776e-09 SQRT(A) (m 1/2): 5153.573242 Right Ascen at Week(rad): -2.783802122 Argument of Perigee(rad): 1.206029103 Mean Anom(rad): -0.2033239853 Af0(s): 0.0004062304565 Af1(s/s): -1.455192e-11 week: 365 ******** Week 365 almanac for PRN-4 ******** ID: 4 Health: 0 Eccentricity: 0.003729820251 Time of Applicability(s): 61440 Orbital Inclination(rad): 0.9706167562 Rate of Right Ascen(r/s): -7.737465153e-09 SQRT(A) (m 1/2): 5153.665039 Right Ascen at Week(rad): -1.714017178 Argument of Perigee(rad): -2.870171682 Mean Anom(rad): 2.750887074 Af0(s): 4.14520874e-05 Af1(s/s): 0 week: 365 ******** Week 365 almanac for PRN-5 ******** ID: 5 Health: 0 Eccentricity: 0.005467891693 Time of Applicability(s): 61440 Orbital Inclination(rad): 0.9805396944 Rate of Right Ascen(r/s): -7.531742299e-09 SQRT(A) (m 1/2): 5153.683594 Right Ascen at Week(rad): -2.843959935 Argument of Perigee(rad): 1.419172663 Mean Anom(rad): -2.861494729 Af0(s): -0.0001831428589 Af1(s/s): 0 week: 365 ******** Week 365 almanac for PRN-6 ******** ID: 6 Health: 0 Eccentricity: 0.003803253174 Time of Applicability(s): 61440 Orbital Inclination(rad): 0.9866037122 Rate of Right Ascen(r/s): -7.874613723e-09 SQRT(A) (m 1/2): 5153.609375 Right Ascen at Week(rad): 2.463026741 Argument of Perigee(rad): -0.5367356085 Mean Anom(rad): 1.08388813 Af0(s): -0.0004831052368 Af1(s/s): 0 week: 365 ******** Week 365 almanac for PRN-7 ******** ID: 7 Health: 0 Eccentricity: 0.02068853378 Time of Applicability(s): 61440 Orbital Inclination(rad): 0.9509865958 Rate of Right Ascen(r/s): -7.954617056e-09 SQRT(A) (m 1/2): 5153.551758 Right Ascen at Week(rad): -0.7052278186 Argument of Perigee(rad): -1.981006234 Mean Anom(rad): 0.2474068331 Af0(s): -0.0001341540283 Af1(s/s): -3.637979e-12 week: 365 ******** Week 365 almanac for PRN-8 ******** ID: 8 Health: 0 Eccentricity: 0.01160049438 Time of Applicability(s): 61440 Orbital Inclination(rad): 0.9429032361 Rate of Right Ascen(r/s): -8.183198006e-09 SQRT(A) (m 1/2): 5153.649414 Right Ascen at Week(rad): 1.340895825 Argument of Perigee(rad): 0.5339605114 Mean Anom(rad): 3.059573369 Af0(s): 0.0003685467407 Af1(s/s): -7.275958e-12 week: 365 ******** Week 365 almanac for PRN-9 ******** ID: 9 Health: 0 Eccentricity: 0.003343582153 Time of Applicability(s): 61440 Orbital Inclination(rad): 0.9648463519 Rate of Right Ascen(r/s): -7.783181343e-09 SQRT(A) (m 1/2): 5153.704102 Right Ascen at Week(rad): -1.778512906 Argument of Perigee(rad): 2.058052067 Mean Anom(rad): -2.62935842 Af0(s): 0.0006021857788 Af1(s/s): -3.637979e-12 week: 365 ******** Week 365 almanac for PRN-10 ******** ID: 10 Health: 0 Eccentricity: 0.0109333992 Time of Applicability(s): 61440 Orbital Inclination(rad): 0.9935425784 Rate of Right Ascen(r/s): -7.394593729e-09 SQRT(A) (m 1/2): 5153.613281 Right Ascen at Week(rad): -2.78631057 Argument of Perigee(rad): -2.256687599 Mean Anom(rad): -1.196682906 Af0(s): -0.0004665244019 Af1(s/s): 0 week: 365 ******** Week 365 almanac for PRN-11 ******** ID: 11 Health: 0 Eccentricity: 0.002207279205 Time of Applicability(s): 61440 Orbital Inclination(rad): 0.9634861423 Rate of Right Ascen(r/s): -8.114623721e-09 SQRT(A) (m 1/2): 5153.539551 Right Ascen at Week(rad): 2.48106974 Argument of Perigee(rad): -2.323189936 Mean Anom(rad): 2.235479266 Af0(s): -0.0003029770752 Af1(s/s): 1.455192e-11 week: 365 ******** Week 365 almanac for PRN-12 ******** ID: 12 Health: 0 Eccentricity: 0.008930683136 Time of Applicability(s): 61440 Orbital Inclination(rad): 0.9594234901 Rate of Right Ascen(r/s): -7.646032773e-09 SQRT(A) (m 1/2): 5153.710938 Right Ascen at Week(rad): 0.4123981516 Argument of Perigee(rad): 1.569912116 Mean Anom(rad): -0.4465153673 Af0(s): -0.0004808442139 Af1(s/s): 0 week: 365 ******** Week 365 almanac for PRN-13 ******** ID: 13 Health: 0 Eccentricity: 0.01008892059 Time of Applicability(s): 61440 Orbital Inclination(rad): 0.9761534681 Rate of Right Ascen(r/s): -7.748894201e-09 SQRT(A) (m 1/2): 5153.617188 Right Ascen at Week(rad): -1.602908058 Argument of Perigee(rad): 0.9943678425 Mean Anom(rad): 2.827901448 Af0(s): 0.0005381234619 Af1(s/s): 0 week: 365 ******** Week 365 almanac for PRN-14 ******** ID: 14 Health: 0 Eccentricity: 0.006902694702 Time of Applicability(s): 61440 Orbital Inclination(rad): 0.9427833938 Rate of Right Ascen(r/s): -7.828897533e-09 SQRT(A) (m 1/2): 5153.608398 Right Ascen at Week(rad): 0.3572467485 Argument of Perigee(rad): -2.732714869 Mean Anom(rad): -0.5847496566 Af0(s): 0.0005863586182 Af1(s/s): 0 week: 365 ******** Week 365 almanac for PRN-15 ******** ID: 15 Health: 0 Eccentricity: 0.01663827896 Time of Applicability(s): 61440 Orbital Inclination(rad): 0.9428612913 Rate of Right Ascen(r/s): -8.000333246e-09 SQRT(A) (m 1/2): 5153.65332 Right Ascen at Week(rad): -1.923417914 Argument of Perigee(rad): 1.508087373 Mean Anom(rad): 2.063961039 Af0(s): 0.0003165432129 Af1(s/s): 3.637979e-12 week: 365 ******** Week 365 almanac for PRN-16 ******** ID: 16 Health: 0 Eccentricity: 0.01501464844 Time of Applicability(s): 61440 Orbital Inclination(rad): 0.9585426496 Rate of Right Ascen(r/s): -7.657461821e-09 SQRT(A) (m 1/2): 5153.620117 Right Ascen at Week(rad): 0.4293112635 Argument of Perigee(rad): 0.9317659966 Mean Anom(rad): -2.181604558 Af0(s): 0.0001891722534 Af1(s/s): 7.275958e-12 week: 365 ******** Week 365 almanac for PRN-17 ******** ID: 17 Health: 0 Eccentricity: 0.01261758804 Time of Applicability(s): 61440 Orbital Inclination(rad): 0.958512689 Rate of Right Ascen(r/s): -8.068907531e-09 SQRT(A) (m 1/2): 5153.562012 Right Ascen at Week(rad): 1.446169377 Argument of Perigee(rad): -1.11530927 Mean Anom(rad): 3.014166638 Af0(s): -8.365784912e-05 Af1(s/s): -1.091394e-11 week: 365 ******** Week 365 almanac for PRN-18 ******** ID: 18 Health: 0 Eccentricity: 0.00582075119 Time of Applicability(s): 61440 Orbital Inclination(rad): 0.9715575178 Rate of Right Ascen(r/s): -8.011762293e-09 SQRT(A) (m 1/2): 5153.583496 Right Ascen at Week(rad): 2.457510627 Argument of Perigee(rad): -2.871256629 Mean Anom(rad): 1.031647021 Af0(s): -0.0003037307495 Af1(s/s): 1.091394e-11 week: 365 ******** Week 365 almanac for PRN-19 ******** ID: 19 Health: 0 Eccentricity: 0.01127481461 Time of Applicability(s): 61440 Orbital Inclination(rad): 0.9576678011 Rate of Right Ascen(r/s): -8.080336578e-09 SQRT(A) (m 1/2): 5153.678223 Right Ascen at Week(rad): 1.490055234 Argument of Perigee(rad): 2.947052732 Mean Anom(rad): -1.492412381 Af0(s): 0.000550182251 Af1(s/s): 0 week: 365 ******** Week 365 almanac for PRN-20 ******** ID: 20 Health: 0 Eccentricity: 0.0022315979 Time of Applicability(s): 61440 Orbital Inclination(rad): 0.9602324253 Rate of Right Ascen(r/s): -7.874613723e-09 SQRT(A) (m 1/2): 5153.703613 Right Ascen at Week(rad): -1.773068697 Argument of Perigee(rad): -1.940121677 Mean Anom(rad): -0.5129914884 Af0(s): 7.310640869e-05 Af1(s/s): 2.182787e-11 week: 365 ******** Week 365 almanac for PRN-21 ******** ID: 21 Health: 0 Eccentricity: 0.0008201599121 Time of Applicability(s): 61440 Orbital Inclination(rad): 0.9634082449 Rate of Right Ascen(r/s): -7.691748963e-09 SQRT(A) (m 1/2): 5153.739746 Right Ascen at Week(rad): -2.778579247 Argument of Perigee(rad): -0.2243143553 Mean Anom(rad): -0.8355188138 Af0(s): 0.000326340979 Af1(s/s): 0 week: 365 ******** Week 365 almanac for PRN-22 ******** ID: 22 Health: 0 Eccentricity: 0.01203203201 Time of Applicability(s): 61440 Orbital Inclination(rad): 0.9579913752 Rate of Right Ascen(r/s): -7.668890868e-09 SQRT(A) (m 1/2): 5153.578613 Right Ascen at Week(rad): 0.432668719 Argument of Perigee(rad): -0.992687804 Mean Anom(rad): -2.621635336 Af0(s): -1.808818359e-05 Af1(s/s): 7.275958e-12 week: 365 ******** Week 365 almanac for PRN-23 ******** ID: 23 Health: 0 Eccentricity: 0.006092071533 Time of Applicability(s): 61440 Orbital Inclination(rad): 0.9885271803 Rate of Right Ascen(r/s): -7.451738966e-09 SQRT(A) (m 1/2): 5153.670898 Right Ascen at Week(rad): -2.818542518 Argument of Perigee(rad): -2.739888552 Mean Anom(rad): -0.1261324692 Af0(s): 0.0004996860718 Af1(s/s): 3.637979e-12 week: 365 ******** Week 365 almanac for PRN-24 ******** ID: 24 Health: 0 Eccentricity: 0.01797914505 Time of Applicability(s): 61440 Orbital Inclination(rad): 0.9349277344 Rate of Right Ascen(r/s): -8.183198006e-09 SQRT(A) (m 1/2): 5153.579102 Right Ascen at Week(rad): -0.8143396924 Argument of Perigee(rad): 1.140060814 Mean Anom(rad): 1.229476988 Af0(s): -3.919106445e-05 Af1(s/s): 1.818989e-11 week: 365 ******** Week 365 almanac for PRN-25 ******** ID: 25 Health: 0 Eccentricity: 0.01289415359 Time of Applicability(s): 61440 Orbital Inclination(rad): 0.9478167683 Rate of Right Ascen(r/s): -7.783181343e-09 SQRT(A) (m 1/2): 5153.663086 Right Ascen at Week(rad): 0.3182347259 Argument of Perigee(rad): 1.159236323 Mean Anom(rad): -0.5615032563 Af0(s): 0.0003414144653 Af1(s/s): -3.637979e-12 week: 365 ******** Week 365 almanac for PRN-26 ******** ID: 26 Health: 0 Eccentricity: 0.01102590561 Time of Applicability(s): 61440 Orbital Inclination(rad): 0.9286000636 Rate of Right Ascen(r/s): -7.954617056e-09 SQRT(A) (m 1/2): 5153.682617 Right Ascen at Week(rad): 0.2431063689 Argument of Perigee(rad): 0.7115966852 Mean Anom(rad): -1.383651795 Af0(s): -0.0002765984741 Af1(s/s): -3.637979e-12 week: 365 ******** Week 365 almanac for PRN-27 ******** ID: 27 Health: 0 Eccentricity: 0.01437997818 Time of Applicability(s): 61440 Orbital Inclination(rad): 0.9519932707 Rate of Right Ascen(r/s): -8.114623721e-09 SQRT(A) (m 1/2): 5153.618652 Right Ascen at Week(rad): 1.373233384 Argument of Perigee(rad): 0.8905544942 Mean Anom(rad): -3.116142281 Af0(s): -7.461375732e-05 Af1(s/s): -1.455192e-11 week: 365 ******** Week 365 almanac for PRN-28 ******** ID: 28 Health: 0 Eccentricity: 0.000382900238 Time of Applicability(s): 61440 Orbital Inclination(rad): 0.9618922404 Rate of Right Ascen(r/s): -7.874613723e-09 SQRT(A) (m 1/2): 5153.503418 Right Ascen at Week(rad): -0.7305928052 Argument of Perigee(rad): -0.3142054048 Mean Anom(rad): 0.8770250533 Af0(s): -0.0004446678467 Af1(s/s): 7.275958e-12 week: 365 ******** Week 365 almanac for PRN-29 ******** ID: 29 Health: 0 Eccentricity: 0.003460884094 Time of Applicability(s): 61440 Orbital Inclination(rad): 0.9611671948 Rate of Right Ascen(r/s): -8.046049436e-09 SQRT(A) (m 1/2): 5153.692383 Right Ascen at Week(rad): 1.462998224 Argument of Perigee(rad): 2.752431166 Mean Anom(rad): 3.008824296 Af0(s): -0.0002735837769 Af1(s/s): 7.275958e-12 week: 365 ******** Week 365 almanac for PRN-30 ******** ID: 30 Health: 0 Eccentricity: 0.008172035217 Time of Applicability(s): 61440 Orbital Inclination(rad): 0.9362519912 Rate of Right Ascen(r/s): -8.137481816e-09 SQRT(A) (m 1/2): 5153.67627 Right Ascen at Week(rad): -0.7147174522 Argument of Perigee(rad): -2.296038551 Mean Anom(rad): 0.03564370643 Af0(s): 0.0001401834229 Af1(s/s): 1.455192e-11 week: 365 ******** Week 365 almanac for PRN-31 ******** ID: 31 Health: 0 Eccentricity: 0.0108294487 Time of Applicability(s): 61440 Orbital Inclination(rad): 0.9547436503 Rate of Right Ascen(r/s): -7.943188008e-09 SQRT(A) (m 1/2): 5153.523926 Right Ascen at Week(rad): -0.6808593953 Argument of Perigee(rad): 0.9421289806 Mean Anom(rad): -0.8359622302 Af0(s): -0.0001243562622 Af1(s/s): 3.637979e-12 week: 365 ******** Week 365 almanac for PRN-32 ******** ID: 32 Health: 0 Eccentricity: 0.009391784668 Time of Applicability(s): 61440 Orbital Inclination(rad): 0.9678663765 Rate of Right Ascen(r/s): -7.771752296e-09 SQRT(A) (m 1/2): 5153.691895 Right Ascen at Week(rad): -1.761391942 Argument of Perigee(rad): -1.985122067 Mean Anom(rad): -2.56184791 Af0(s): -1.055144043e-05 Af1(s/s): 1.818989e-11 week: 365